Tucson Davis Monthan, AZ

8:31 PM MST on June 24, 2018 (GMT -0700)
Davis-Monthan Air Force Base

Weather History for KDMA - December, 2017

Change the Weather History Date:

Tuesday, December 26, 2017

  Actual Average Record
Temperature  
Mean Temperature 55 °F -  
Max Temperature 73 °F 62 °F 78 °F (1955)
Min Temperature 37 °F 38 °F 25 °F (1987)
Degree Days  
Heating Degree Days 10    
Growing Degree Days 5 (Base 50)    
Moisture  
Dew Point 15 °F    
Average Humidity 25    
Maximum Humidity 40    
Minimum Humidity 6    
Precipitation  
Precipitation 0.00 in - - ()
Sea Level Pressure  
Sea Level Pressure 30.08 in    
Wind  
Wind Speed 4 mph (SSE)    
Max Wind Speed 9 mph    
Max Gust Speed -    
Visibility 10 miles    
Events      
Averages and records for this station are not official NWS values.
T = Trace of Precipitation, MM = Missing Value Source: NWS Daily Summary

Daily Weather History Graph

Daily Weather History Graph

Search for Another Location

Airport or City:

Astronomy

Dec. 26, 2017 Rise Set
Actual Time 7:22 AM MST 5:25 PM MST
Civil Twilight 6:55 AM MST 5:53 PM MST
Nautical Twilight 6:25 AM MST 6:23 PM MST
Astronomical Twilight 5:55 AM MST 6:53 PM MST
Moon 12:46 PM MST (12/26) 12:17 AM MST (12/26)
Length of Visible Light 10h 57m
Length of Day
10h 03m
First Quarter, 54% of the Moon is Illuminated
Dec 26
First Quarter
Jan 1
Full
Jan 8
Last Quarter
Jan 16
New
Jan 24
First Quarter

Hourly Weather History & Observations

Time (MST) Temp. Windchill Dew Point Humidity Pressure Visibility Wind Dir Wind Speed Gust Speed Precip Events Conditions
12:58 AM 41.5 °F 37.8 °F 16.0 °F 36% 30.04 in 10.0 mi ESE 5.8 mph - N/A   Clear
1:58 AM 41.0 °F 39.0 °F 15.4 °F 36% 30.04 in 10.0 mi ESE 3.5 mph - N/A   Clear
2:58 AM 38.7 °F - 15.8 °F 39% 30.04 in 10.0 mi Calm Calm - N/A   Clear
3:58 AM 37.9 °F - 15.3 °F 40% 30.05 in 10.0 mi Calm Calm - N/A   Clear
4:58 AM 38.1 °F 31.7 °F 14.7 °F 39% 30.06 in 10.0 mi SE 9.2 mph - N/A   Clear
5:58 AM 39.4 °F 33.2 °F 14.0 °F 36% 30.07 in 10.0 mi SE 9.2 mph - N/A   Clear
6:58 AM 37.4 °F 30.8 °F 13.5 °F 38% 30.11 in 10.0 mi ESE 9.2 mph - N/A   Clear
7:58 AM 39.0 °F 34.0 °F 14.4 °F 37% 30.13 in 10.0 mi SE 6.9 mph - N/A   Clear
8:58 AM 47.7 °F - 14.4 °F 26% 30.12 in 10.0 mi SE 9.2 mph - N/A   Clear
9:58 AM 55.9 °F - 14.2 °F 19% 30.15 in 10.0 mi Calm Calm - N/A   Clear
10:58 AM 62.4 °F - 18.3 °F 18% 30.13 in 10.0 mi ESE 3.5 mph - N/A   Clear
11:58 AM 65.8 °F - 19.8 °F 17% 30.09 in 10.0 mi Calm Calm - N/A   Clear
12:58 PM 70.9 °F - 15.8 °F 12% 30.05 in 10.0 mi SW 4.6 mph - N/A   Clear
1:58 PM 73.4 °F - 13.5 °F 10% 30.04 in 10.0 mi SW 3.5 mph - N/A   Clear
2:58 PM 73.0 °F - 10.8 °F 9% 30.03 in 10.0 mi SSW 3.5 mph - N/A   Clear
3:58 PM 72.3 °F - 1.4 °F 6% 30.03 in 10.0 mi Calm Calm - N/A   Clear
4:58 PM 68.5 °F - 4.8 °F 8% 30.04 in 10.0 mi WNW 4.6 mph - N/A   Clear
5:58 PM 60.6 °F - 16.9 °F 18% 30.08 in 10.0 mi NNW 4.6 mph - N/A   Clear
6:58 PM 57.4 °F - 16.7 °F 20% 30.10 in 10.0 mi NW 4.6 mph - N/A   Clear
7:58 PM 54.0 °F - 19.8 °F 26% 30.13 in 10.0 mi South 3.5 mph - N/A   Clear
8:58 PM 52.7 °F - 21.4 °F 29% 30.11 in 10.0 mi Calm Calm - N/A   Scattered Clouds
9:58 PM 52.3 °F - 21.7 °F 30% 30.12 in 10.0 mi SSE 4.6 mph - N/A   Clear
10:58 PM 51.8 °F - 18.9 °F 27% 30.12 in 10.0 mi SSE 6.9 mph - N/A   Partly Cloudy
11:58 PM 51.1 °F - 17.4 °F 26% 30.11 in 10.0 mi SSE 4.6 mph - N/A   Scattered Clouds